Weather History for Romeoville, IL

Change the Weather History Date:

Wednesday, January 1, 2014

  Actual Average Record
Temperature  
Mean Temperature 18 °F 24 °F  
Max Temperature 22 °F 31 °F 50 °F (2000)
Min Temperature 14 °F 17 °F -2 °F (2001)
Degree Days  
Heating Degree Days 47 41  
Month to date heating degree days 47 41  
Since 1 July heating degree days 2691 2427  
Cooling Degree Days 0 0  
Month to date cooling degree days 0 0  
Year to date cooling degree days 0 0  
Moisture  
Dew Point 16 °F    
Average Humidity 85    
Maximum Humidity 89    
Minimum Humidity 77    
Precipitation  
Precipitation 0.14 in 0.08 in 1.08 in (2005)
Month to date precipitation 0.14 0.08  
Year to date precipitation 0.14 0.08  
Snow  
Snow 2.40 in 0.30 in 0.00 in (2008)
Month to date snowfall 2.4 0.3  
Since 1 July snowfall 15.5 10.5  
Snow Depth 0.00 in    
Sea Level Pressure  
Sea Level Pressure 30.20 in    
Wind  
Wind Speed 11 mph (ENE)    
Max Wind Speed 21 mph    
Max Gust Speed 25 mph    
Visibility 6 miles    
Events Rain , Snow    
T = Trace of Precipitation, MM = Missing Value Source: NWS Daily Summary

Daily Weather History Graph

Daily Weather History Graph

Search for Another Location

Airport:

Trip Planner

Search our weather history database for the weather conditions in past years. The results will help you decide how hot, cold, wet, or windy it might be!

Date:

Astronomy

Jan. 01, 2014 Rise Set
Actual Time 7:19 AM CST 4:33 PM CST
Civil Twilight 6:47 AM CST 5:04 PM CST
Nautical Twilight 6:13 AM CST 5:39 PM CST
Astronomical Twilight 5:39 AM CST 6:12 PM CST
Moon 7:08 AM CST (1/1) 5:18 PM CST (1/1)
Length of Visible Light 10h 16m
Length of Day
9h 13m
New Moon, 0% of the Moon is Illuminated
Jan 1
New Moon
Jan 7
First Quarter
Jan 15
Full
Jan 23
Last Quarter
Jan 30
New

Hourly Weather History & Observations

Time (CST) Temp. Windchill Dew Point Humidity Pressure Visibility Wind Dir Wind Speed Gust Speed Precip Events Conditions
12:15 AM 13.5 °F -0.2 °F 9.1 °F 83% 30.26 in 5.0 mi ENE 11.5 mph - N/A Snow Light Snow
12:35 AM 13.6 °F 3.5 °F 9.5 °F 84% 30.26 in 5.0 mi ENE 6.9 mph - N/A Snow Light Snow
12:55 AM 14.0 °F 0.5 °F 10.0 °F 84% 30.26 in 7.0 mi ENE 11.5 mph - N/A Snow Light Snow
1:15 AM 14.4 °F 3.3 °F 10.4 °F 84% 30.26 in 10.0 mi NE 8.1 mph - N/A   Overcast
1:35 AM 14.4 °F 2.4 °F 10.4 °F 84% 30.25 in 10.0 mi NE 9.2 mph - N/A   Overcast
1:55 AM 14.7 °F 4.8 °F 10.9 °F 85% 30.26 in 10.0 mi NE 6.9 mph - N/A   Overcast
2:15 AM 14.7 °F 2.9 °F 11.1 °F 86% 30.25 in 10.0 mi NE 9.2 mph - N/A   Overcast
2:35 AM 14.7 °F 2.1 °F 11.3 °F 86% 30.25 in 10.0 mi NE 10.4 mph - N/A   Overcast
2:55 AM 14.9 °F 5.0 °F 11.7 °F 87% 30.24 in 10.0 mi NE 6.9 mph - N/A   Overcast
3:15 AM 15.1 °F 5.2 °F 11.8 °F 87% 30.24 in 10.0 mi NE 6.9 mph - N/A   Overcast
3:35 AM 15.3 °F 4.4 °F 12.0 °F 87% 30.24 in 10.0 mi NNE 8.1 mph - N/A   Overcast
3:55 AM 14.9 °F 4.0 °F 11.8 °F 88% 30.23 in 10.0 mi NE 8.1 mph - N/A   Overcast
4:15 AM 15.3 °F 4.4 °F 12.2 °F 88% 30.23 in 10.0 mi NNE 8.1 mph - N/A   Overcast
4:35 AM 15.6 °F 4.9 °F 12.6 °F 88% 30.23 in 10.0 mi NE 8.1 mph - N/A   Overcast
4:55 AM 16.2 °F 4.7 °F 13.1 °F 88% 30.22 in 10.0 mi NE 9.2 mph - N/A   Overcast
5:15 AM 16.7 °F 8.3 °F 13.6 °F 88% 30.22 in 10.0 mi East 5.8 mph - N/A   Overcast
5:35 AM 16.7 °F 9.6 °F 13.6 °F 88% 30.23 in 10.0 mi ENE 4.6 mph - N/A   Overcast
5:55 AM 17.2 °F 6.8 °F 14.0 °F 87% 30.23 in 10.0 mi ENE 8.1 mph - N/A   Overcast
6:15 AM 18.0 °F 8.7 °F 14.9 °F 88% 30.23 in 10.0 mi ENE 6.9 mph - N/A   Overcast
6:35 AM 18.3 °F 7.3 °F 15.3 °F 88% 30.22 in 10.0 mi ENE 9.2 mph - N/A   Overcast
6:55 AM 18.5 °F 8.4 °F 15.6 °F 89% 30.22 in 10.0 mi East 8.1 mph - N/A   Overcast
7:15 AM 19.6 °F 9.7 °F 16.2 °F 87% 30.22 in 10.0 mi East 8.1 mph - N/A   Overcast
7:35 AM 20.3 °F 8.3 °F 16.7 °F 86% 30.22 in 10.0 mi East 11.5 mph - N/A   Overcast
7:55 AM 20.8 °F 7.3 °F 16.7 °F 84% 30.22 in 10.0 mi East 15.0 mph 18.4 mph N/A   Overcast
8:15 AM 21.0 °F 8.1 °F 16.7 °F 83% 30.23 in 10.0 mi East 13.8 mph 19.6 mph N/A   Overcast
8:35 AM 21.0 °F 7.1 °F 16.7 °F 83% 30.23 in 10.0 mi East 16.1 mph - N/A   Overcast
8:55 AM 21.0 °F 7.6 °F 16.7 °F 83% 30.24 in 3.0 mi East 15.0 mph - N/A Snow Light Snow
9:15 AM 21.0 °F 6.6 °F 16.7 °F 83% 30.24 in 1.5 mi East 17.3 mph 21.9 mph N/A Snow Light Snow
9:35 AM 21.0 °F 7.6 °F 17.1 °F 85% 30.25 in 1.8 mi ENE 15.0 mph 19.6 mph N/A Snow Light Snow
9:55 AM 21.2 °F 7.3 °F 17.1 °F 84% 30.24 in 2.5 mi East 16.1 mph - N/A Snow Light Snow
10:15 AM 21.6 °F 8.2 °F 17.4 °F 84% 30.24 in 4.0 mi ENE 15.0 mph - N/A Snow Light Snow
10:35 AM 21.9 °F 8.7 °F 17.4 °F 83% 30.24 in 4.0 mi East 15.0 mph 21.9 mph N/A Snow Light Snow
10:55 AM 22.1 °F 6.8 °F 16.7 °F 80% 30.23 in 10.0 mi East 20.7 mph 24.2 mph N/A   Overcast
11:15 AM 22.1 °F 7.6 °F 16.3 °F 79% 30.22 in 10.0 mi East 18.4 mph 25.3 mph N/A   Overcast
11:35 AM 22.1 °F 8.0 °F 16.0 °F 77% 30.21 in 10.0 mi East 17.3 mph 24.2 mph N/A   Overcast
11:55 AM 22.1 °F 8.5 °F 16.3 °F 79% 30.21 in 10.0 mi East 16.1 mph - N/A   Overcast
12:15 PM 22.1 °F 8.9 °F 16.5 °F 79% 30.20 in 7.0 mi ENE 15.0 mph - N/A Snow Light Snow
12:35 PM 22.1 °F 8.5 °F 16.9 °F 80% 30.19 in 7.0 mi ENE 16.1 mph 23.0 mph N/A Snow Light Snow
12:55 PM 21.9 °F 9.2 °F 17.1 °F 82% 30.19 in 3.0 mi ENE 13.8 mph - N/A Snow Light Snow
1:15 PM 21.7 °F 9.0 °F 17.6 °F 84% 30.18 in 3.0 mi ENE 13.8 mph - N/A Snow Light Snow
1:35 PM 21.7 °F 8.0 °F 17.6 °F 84% 30.18 in 3.0 mi ENE 16.1 mph - N/A Snow Light Snow
1:55 PM 21.7 °F 8.0 °F 17.6 °F 84% 30.17 in 2.5 mi ENE 16.1 mph 21.9 mph N/A Snow Light Snow
2:15 PM 21.9 °F 8.7 °F 18.0 °F 85% 30.18 in 1.8 mi NE 15.0 mph - N/A Snow Light Snow
2:35 PM 21.6 °F 8.8 °F 17.6 °F 85% 30.17 in 2.5 mi ENE 13.8 mph - N/A Snow Light Snow
2:55 PM 21.6 °F 7.3 °F 17.6 °F 85% 30.17 in 2.5 mi NE 17.3 mph 20.7 mph N/A Snow Light Snow
3:15 PM 21.6 °F 8.8 °F 18.0 °F 86% 30.18 in 2.0 mi ENE 13.8 mph - N/A Snow Light Snow
3:35 PM 21.6 °F 9.3 °F 17.8 °F 85% 30.17 in 2.5 mi ENE 12.7 mph - N/A Snow Light Snow
3:55 PM 21.7 °F 9.0 °F 18.3 °F 87% 30.17 in 2.5 mi ENE 13.8 mph - N/A Snow Light Snow
4:15 PM 21.7 °F 10.8 °F 18.5 °F 87% 30.17 in 3.0 mi ENE 10.4 mph - N/A Snow Light Snow
4:35 PM 21.6 °F 8.8 °F 18.3 °F 87% 30.17 in 2.5 mi ENE 13.8 mph - N/A Snow Light Snow
4:55 PM 21.2 °F 7.8 °F 17.6 °F 86% 30.18 in 2.5 mi ENE 15.0 mph 20.7 mph N/A Snow Light Snow
5:15 PM 21.0 °F 9.3 °F 17.6 °F 87% 30.18 in 4.0 mi ENE 11.5 mph - N/A Snow Light Snow
5:35 PM 21.0 °F 9.3 °F 18.0 °F 88% 30.18 in 1.8 mi ENE 11.5 mph - N/A Snow Light Snow
5:55 PM 20.8 °F 9.0 °F 17.8 °F 88% 30.17 in 3.0 mi East 11.5 mph - N/A Snow Light Snow
6:15 PM 20.8 °F 9.0 °F 17.6 °F 87% 30.17 in 4.0 mi East 11.5 mph 18.4 mph N/A Snow Light Snow
6:35 PM 21.0 °F 9.3 °F 17.6 °F 87% 30.18 in 5.0 mi ENE 11.5 mph - N/A Snow Light Snow
6:55 PM 21.0 °F 9.3 °F 17.4 °F 86% 30.18 in 4.0 mi East 11.5 mph - N/A Snow Light Snow
7:15 PM 20.8 °F 9.0 °F 17.6 °F 87% 30.18 in 4.0 mi ENE 11.5 mph - N/A Snow Light Snow
7:35 PM 20.7 °F 8.8 °F 17.2 °F 87% 30.18 in 4.0 mi East 11.5 mph - N/A Snow Light Snow
7:55 PM 20.3 °F 7.7 °F 16.7 °F 86% 30.18 in 5.0 mi ENE 12.7 mph - N/A Snow Light Snow
8:15 PM 20.3 °F 8.3 °F 16.7 °F 86% 30.18 in 7.0 mi ENE 11.5 mph - N/A Snow Light Snow
8:35 PM 20.1 °F 8.8 °F 16.7 °F 87% 30.18 in 5.0 mi ENE 10.4 mph - N/A Snow Light Snow
8:55 PM 19.9 °F 7.9 °F 16.5 °F 87% 30.18 in 5.0 mi ENE 11.5 mph - N/A Rain Light Freezing Rain
9:15 PM 19.8 °F 9.9 °F 16.5 °F 87% 30.17 in 7.0 mi ENE 8.1 mph - N/A Snow Light Snow
9:35 PM 19.6 °F 8.1 °F 16.3 °F 87% 30.16 in 5.0 mi ENE 10.4 mph 16.1 mph N/A Snow Light Snow
9:55 PM 19.8 °F 7.7 °F 16.0 °F 85% 30.16 in 7.0 mi ENE 11.5 mph - N/A Snow Light Snow
10:15 PM 19.8 °F 8.3 °F 15.8 °F 85% 30.16 in 7.0 mi ENE 10.4 mph - N/A Snow Light Snow
10:35 PM 19.8 °F 8.3 °F 15.8 °F 85% 30.16 in 7.0 mi ENE 10.4 mph - N/A Snow Light Snow
10:55 PM 19.8 °F 7.7 °F 15.8 °F 85% 30.14 in 5.0 mi ENE 11.5 mph 17.3 mph N/A Snow Light Snow
11:15 PM 19.8 °F 7.1 °F 16.2 °F 86% 30.14 in 7.0 mi ENE 12.7 mph - N/A Snow Light Snow
11:35 PM 19.9 °F 10.1 °F 16.7 °F 87% 30.14 in 4.0 mi ENE 8.1 mph - N/A Snow Light Snow
11:55 PM 20.3 °F 7.7 °F 16.7 °F 86% 30.13 in 7.0 mi ENE 12.7 mph 17.3 mph N/A Snow Light Snow